[[{"header":{"parameterUnit":"m.s-1","parameterCategory":1,"la1":30.2991,"la2":30.254,"lo1":-89.0895,"lo2":-89.0444,"dy":0.0017,"dx":0.0017,"nx":28,"ny":28,"refTime":"2025-07-23T09:00:00:Z","depth":0,"parameterNumber":2,"parameterNumberName":"U-component_of_WINDS"},"data":[0,0,0,0,0,0,0,0,0,0,0,0,0,0,0,0,0,0,0,0,0,0,0,0,0,0,0,0,0,0,0,0,0,0,0,0,0,0,0,0,0,0,0,0,0,0,0,0,0,0,0,0,0,0,0,0,0,0,2.5217,2.5217,0,2.5267,2.5267,2.5268,2.5175,2.5172,2.5169,2.5166,2.5225,2.523,2.5234,0,0,0,0,0,0,0,0,0,0,0,0,0,2.5047,2.5051,2.5217,2.5217,2.5218,2.5267,2.5267,2.5268,2.5176,2.5172,2.5168,2.5165,2.5224,2.5229,2.5235,0,0,0,0,0,0,0,0,0,0,0,0,0,2.5112,2.5052,2.5217,2.5178,2.5175,2.5267,2.5267,2.5268,2.5177,2.5172,2.5167,2.5163,2.5222,2.5229,2.5235,2.537,0,0,2.5256,2.5259,0,0,0,0,0,0,0,0,2.5108,2.5118,2.5183,2.518,2.5177,2.521,2.5229,2.5303,2.5178,2.5176,2.5166,2.5161,2.5225,2.5231,2.5251,2.5373,2.5375,2.5256,2.526,2.5263,2.5265,0,0,0,0,0,0,0,2.5104,2.5116,2.5237,2.5184,2.518,2.516,2.5164,2.5243,2.5226,2.5176,2.5169,2.5176,2.5222,2.5244,2.5251,2.5376,2.5256,2.5262,2.5266,2.5269,2.561,2.5615,0,0,0,0,0,0,2.5103,2.5112,2.5235,2.5238,2.513,2.5167,2.5171,2.5204,2.5225,2.5223,2.518,2.5172,2.5235,2.5244,2.5253,2.541,2.5263,2.527,2.5273,2.5605,2.5611,2.5617,0,0,0,0,0,0,2.51,2.5115,2.5233,2.5173,2.5187,2.5174,2.5213,2.5208,2.523,2.5228,2.5225,2.5205,2.5232,2.5244,2.5341,2.5411,2.5273,2.5279,2.5599,2.5607,2.5614,2.5728,0,0,0,0,0,0,2.5096,2.5115,2.5164,2.5175,2.519,2.5318,2.5217,2.5212,2.524,2.523,2.5251,2.525,2.5229,2.5331,2.5347,2.5418,2.5284,2.5593,2.5603,2.5612,2.5718,2.5738,2.5756,0,0,0,0,0,2.509,2.5196,2.5167,2.5182,2.5252,2.5322,2.5331,2.5303,2.5247,2.5297,2.5296,2.5249,2.5401,2.5342,2.5359,2.5433,2.5588,2.56,2.5611,2.5709,2.5734,2.5755,0,0,0,0,0,0,2.5196,2.5197,2.5165,2.5277,2.53,2.5306,2.5369,2.5331,2.5372,2.5361,2.5326,2.5332,2.5436,2.5445,2.5378,2.5564,2.5486,2.5501,2.5554,2.5578,2.5597,2.5592,2.529,0,0,0,0,0,2.5233,2.5288,2.5286,2.5386,2.5399,2.5382,2.5412,2.5388,2.5411,2.5421,2.5427,2.5454,2.5507,2.5544,2.5593,2.5719,2.5722,2.5778,2.5798,2.5813,2.5827,2.5893,2.5918,2.5654,2.5654,2.5654,0,0,2.5309,2.5316,2.5353,2.5407,2.5422,2.5482,2.5391,2.5458,2.5503,2.5433,2.5523,2.5529,2.5556,2.5668,2.5718,2.5678,2.59,2.5828,2.584,2.5845,2.5907,2.5932,2.5954,2.5662,2.566,2.5659,0,0,2.5477,2.5488,2.5571,2.5587,2.561,2.5598,2.5619,2.5631,2.5631,2.5721,2.5669,2.5723,2.5816,2.5837,2.586,2.6036,2.5994,2.6054,2.6153,2.6218,2.6239,2.6257,2.6319,2.6341,2.6067,2.6067,2.6068,0,2.5569,2.5654,2.562,2.5689,2.5715,2.5651,2.5736,2.5755,2.5794,2.5814,2.5769,2.5883,2.5897,2.6012,2.6055,2.6076,2.6099,2.605,2.6238,2.6256,2.6273,2.6331,2.6355,2.6074,2.6073,2.6073,2.6072,0,2.5766,2.5826,2.5891,2.5926,2.596,2.6037,2.6016,2.6054,2.6027,2.6021,2.6114,2.6128,2.6179,2.6205,2.6181,2.6317,2.6291,2.6243,2.6163,2.6305,2.636,2.6382,2.6084,2.6082,2.608,2.6078,0,0,2.6002,2.6016,2.6041,2.6055,2.6076,2.6123,2.6198,2.6244,2.6277,2.6307,2.6369,2.6449,2.6404,2.643,2.6408,2.6466,2.6603,2.641,2.641,2.6444,2.6752,2.6787,2.6814,2.6576,2.658,2.6583,2.6749,0,2.6167,2.6293,2.6264,2.6389,2.6444,2.6385,2.645,2.6471,2.6467,2.6515,2.6512,2.6568,2.6505,2.6521,2.6575,2.6574,2.6664,2.6562,2.6634,2.6637,2.6627,2.6842,2.6879,2.7036,2.6771,2.6774,2.6777,0,2.6377,2.6411,2.654,2.655,2.6573,2.6632,2.6671,2.6718,2.674,2.6734,2.6763,2.6729,2.6805,2.6726,2.683,2.6762,2.679,2.6794,2.68,2.6804,2.6715,2.6851,2.7085,2.7108,2.681,2.6808,2.6805,0,2.6534,2.6613,2.67,2.6715,2.673,2.6772,2.6781,2.6798,2.6828,2.6864,2.6883,2.6929,2.6954,2.6991,2.6972,2.6915,2.708,2.6998,2.7077,2.7077,2.7113,2.7111,2.7353,2.7134,2.7134,2.7133,2.7133,0,2.6721,2.6802,2.677,2.6824,2.6914,2.6881,2.6971,2.6973,2.699,2.7044,2.6997,2.705,2.7021,2.7072,2.7058,2.7146,2.7159,2.7156,2.7151,2.7159,2.7159,2.7176,2.7164,2.7139,2.7138,2.7137,2.7136,0,2.6911,2.6893,2.6984,2.6989,2.6993,2.7059,2.7064,2.7115,2.7108,2.7177,2.7191,2.7181,2.7238,2.7222,2.7286,2.7276,2.7387,2.737,2.7378,2.7373,2.7452,2.7444,2.7712,2.7745,2.7507,2.7509,2.7511,0,2.703,2.7091,2.7103,2.7134,2.7145,2.7197,2.7226,2.7197,2.723,2.726,2.7307,2.736,2.74,2.7495,2.7494,2.7542,2.7524,2.7615,2.7531,2.7537,2.7524,2.752,2.7525,2.7631,2.7634,2.7636,2.7638,0,2.7244,2.7232,2.7274,2.7314,2.7349,2.7379,2.7406,2.7435,2.7408,2.7447,2.7503,2.7535,2.7598,2.7651,2.7694,2.7705,2.7668,2.7664,2.7685,2.7693,2.7695,2.7693,2.7422,2.7658,2.7656,2.7655,2.7653,2.7653,2.7401,2.7452,2.7467,2.7516,2.7532,2.7558,2.7605,2.7603,2.7648,2.7695,2.7676,2.7741,2.7762,2.7817,2.7833,2.7885,2.7851,2.7881,2.7888,2.7896,2.7904,2.7688,2.7893,2.7893,2.7892,2.7892,2.7891,0,2.7611,2.7617,2.7663,2.7699,2.7738,2.7697,2.7724,2.776,2.7816,2.7839,2.7878,2.7943,2.7994,2.7997,2.8045,2.8086,2.807,2.81,2.8096,2.8099,2.7933,2.791,2.8112,2.8112,2.8112,2.8112,2.8112,2.8111,2.7724,2.7807,2.7797,2.7888,2.7894,2.7955,2.7974,2.7998,2.8015,2.8088,2.8129,2.813,2.8145,2.8193,2.8239,2.8239,2.8258,2.8294,2.8288,2.8133,2.8111,2.809,2.8067,2.8299,2.8299,2.8448,2.845,2.8451]},{"header":{"parameterUnit":"m.s-1","parameterCategory":1,"la1":30.2991,"la2":30.254,"lo1":-89.0895,"lo2":-89.0444,"dy":0.0017,"dx":0.0017,"nx":28,"ny":28,"refTime":"2025-07-23T09:00:00:Z","depth":0,"parameterNumber":3,"parameterNumberName":"V-component_of_WINDS"},"data":[0,0,0,0,0,0,0,0,0,0,0,0,0,0,0,0,0,0,0,0,0,0,0,0,0,0,0,0,0,0,0,0,0,0,0,0,0,0,0,0,0,0,0,0,0,0,0,0,0,0,0,0,0,0,0,0,0,0,1.7158,1.7158,0,1.7179,1.7179,1.7179,1.7153,1.7153,1.7152,1.7151,1.7171,1.7172,1.7174,0,0,0,0,0,0,0,0,0,0,0,0,0,1.7092,1.7093,1.7158,1.7158,1.7158,1.7179,1.7179,1.7179,1.7154,1.7152,1.7151,1.715,1.717,1.7172,1.7174,0,0,0,0,0,0,0,0,0,0,0,0,0,1.7118,1.7094,1.7158,1.7148,1.7147,1.7179,1.7179,1.7179,1.7154,1.7152,1.7151,1.715,1.717,1.7172,1.7174,1.7216,0,0,1.7181,1.7182,0,0,0,0,0,0,0,0,1.7116,1.712,1.7149,1.7149,1.7148,1.7162,1.7163,1.7191,1.7154,1.7151,1.7151,1.7149,1.7169,1.7171,1.7178,1.7217,1.7218,1.7181,1.7182,1.7183,1.7184,0,0,0,0,0,0,0,1.7114,1.7119,1.7166,1.7149,1.7149,1.7141,1.7143,1.7168,1.7168,1.7151,1.715,1.7153,1.7168,1.7176,1.7178,1.7218,1.7181,1.7183,1.7184,1.7185,1.7288,1.729,0,0,0,0,0,0,1.7114,1.7118,1.7165,1.7167,1.7128,1.7144,1.7146,1.7159,1.7168,1.7167,1.7154,1.7151,1.7173,1.7176,1.7179,1.7226,1.7183,1.7185,1.7186,1.7287,1.7289,1.729,0,0,0,0,0,0,1.7113,1.7119,1.7164,1.7142,1.7147,1.7146,1.7161,1.716,1.7168,1.7169,1.7169,1.7162,1.7172,1.7176,1.7206,1.7227,1.7186,1.7188,1.7285,1.7287,1.7289,1.7322,0,0,0,0,0,0,1.7111,1.7118,1.7135,1.7142,1.7148,1.7192,1.7162,1.7162,1.7172,1.7169,1.7177,1.7177,1.7171,1.7203,1.7208,1.7229,1.719,1.7283,1.7286,1.7289,1.7319,1.7325,1.733,0,0,0,0,0,1.7109,1.7144,1.7136,1.7142,1.7169,1.7193,1.7197,1.719,1.7174,1.7189,1.719,1.7177,1.7224,1.7206,1.7212,1.7233,1.7282,1.7285,1.7288,1.7317,1.7324,1.733,0,0,0,0,0,0,1.7139,1.7145,1.7136,1.7175,1.7184,1.7189,1.7209,1.7199,1.7212,1.7209,1.72,1.7202,1.7233,1.7237,1.7217,1.7273,1.725,1.7254,1.7269,1.7276,1.7282,1.728,1.7191,0,0,0,0,0,1.7151,1.717,1.7174,1.7207,1.7212,1.721,1.722,1.7214,1.7223,1.7227,1.723,1.7238,1.7255,1.7266,1.7281,1.732,1.732,1.7337,1.7343,1.7347,1.7351,1.7369,1.7376,1.7301,1.7301,1.7301,0,0,1.7174,1.7179,1.7192,1.7214,1.722,1.7239,1.7213,1.7236,1.725,1.723,1.7258,1.7261,1.7269,1.7303,1.7318,1.7307,1.7371,1.7351,1.7355,1.7356,1.7373,1.738,1.7386,1.7303,1.7303,1.7302,0,0,1.7226,1.7233,1.726,1.7267,1.7276,1.7274,1.7281,1.7287,1.7288,1.7316,1.7301,1.7317,1.7347,1.7353,1.736,1.7411,1.7399,1.7417,1.7445,1.7463,1.7469,1.7474,1.749,1.7497,1.7421,1.7421,1.7421,0,1.7254,1.7283,1.7276,1.7298,1.7307,1.729,1.7316,1.7323,1.7337,1.7343,1.733,1.7365,1.737,1.7404,1.7416,1.7423,1.7429,1.7415,1.7469,1.7474,1.7478,1.7494,1.75,1.7423,1.7423,1.7422,1.7422,0,1.7315,1.7336,1.7357,1.737,1.7381,1.7406,1.7401,1.7413,1.7405,1.7404,1.7432,1.7437,1.7452,1.746,1.7453,1.7492,1.7484,1.747,1.7447,1.7487,1.7502,1.7508,1.7426,1.7425,1.7424,1.7424,0,0,1.7388,1.7395,1.7403,1.7407,1.7416,1.7431,1.7454,1.7469,1.7478,1.7488,1.7506,1.753,1.7517,1.7524,1.7518,1.7534,1.7572,1.7518,1.7518,1.7526,1.7612,1.7621,1.7628,1.7564,1.7565,1.7566,1.7611,0,1.7438,1.7478,1.7471,1.7509,1.7526,1.7509,1.7529,1.7535,1.7535,1.7548,1.7547,1.7564,1.7546,1.755,1.7565,1.7564,1.7589,1.7561,1.7579,1.7579,1.7575,1.7636,1.7646,1.7688,1.7616,1.7617,1.7618,0,1.7502,1.7513,1.7553,1.7556,1.7563,1.7581,1.7593,1.7607,1.7613,1.7611,1.7619,1.7609,1.7631,1.7608,1.7636,1.7617,1.7624,1.7624,1.7626,1.7626,1.76,1.7636,1.7702,1.7707,1.7627,1.7627,1.7626,0,1.7548,1.7573,1.76,1.7605,1.761,1.7622,1.7625,1.763,1.7638,1.7648,1.7653,1.7666,1.7672,1.7681,1.7675,1.7659,1.7703,1.768,1.7701,1.7701,1.771,1.7709,1.7776,1.7717,1.7717,1.7717,1.7717,0,1.7604,1.7628,1.762,1.7636,1.7662,1.7653,1.7679,1.768,1.7684,1.7699,1.7686,1.77,1.7691,1.7704,1.7699,1.7721,1.7725,1.7723,1.7721,1.7723,1.7723,1.7726,1.7723,1.7718,1.7718,1.7718,1.7718,0,1.7659,1.7655,1.7682,1.7684,1.7685,1.7704,1.7705,1.772,1.7717,1.7736,1.774,1.7736,1.7751,1.7745,1.7761,1.7757,1.7786,1.7781,1.7783,1.7781,1.7801,1.7799,1.7871,1.7879,1.7817,1.7818,1.7818,0,1.7695,1.7713,1.7716,1.7725,1.7728,1.7743,1.7751,1.7743,1.7752,1.7759,1.7772,1.7785,1.7795,1.7819,1.7817,1.7828,1.7822,1.7847,1.7824,1.7825,1.782,1.7819,1.7819,1.7851,1.7852,1.7852,1.7853,0,1.7756,1.7753,1.7765,1.7776,1.7786,1.7794,1.7801,1.7809,1.7801,1.7811,1.7825,1.7833,1.7848,1.7861,1.7871,1.7873,1.7861,1.786,1.7865,1.7867,1.7867,1.7865,1.7794,1.7858,1.7858,1.7857,1.7857,1.7857,1.7801,1.7815,1.782,1.7833,1.7837,1.7844,1.7856,1.7855,1.7867,1.7878,1.7873,1.7889,1.7893,1.7904,1.7908,1.792,1.791,1.7918,1.7919,1.7921,1.7922,1.7866,1.7922,1.7921,1.7921,1.7921,1.7921,0,1.7861,1.7862,1.7874,1.7884,1.7894,1.7882,1.7889,1.7898,1.7912,1.7917,1.7927,1.7942,1.7954,1.7953,1.7963,1.7973,1.7967,1.7976,1.7974,1.7974,1.7932,1.7925,1.798,1.798,1.7979,1.7979,1.7979,1.7979,1.7892,1.7915,1.7912,1.7936,1.7937,1.7952,1.7957,1.7962,1.7965,1.7983,1.7993,1.7992,1.7993,1.8004,1.8014,1.8013,1.8016,1.8026,1.8023,1.7983,1.7977,1.7972,1.7966,1.8028,1.8028,1.8065,1.8065,1.8065]}]]